Voltar ao catálogo

STARLINK-34507

AtivoComunicaçõesVLEO
NORAD 64437·PAYLOAD·🇺🇸 United States

Lançado Jun 17, 2025 de Vandenberg Space Force Base

Loading…

Próximas Passagens (próximas 24 horas)

TLE

AtualizadoSource: CelesTrak SupGP

Época: Sep 15, 2026, 03:12 UTC

1 64437C 25129AB  26258.13381944  .00037211  00000+0  12941-2 0  2589
2 64437  69.9998 315.0241 0003364 269.2288 271.2394 15.29568869    13

Acompanhe STARLINK-34507 em tempo real com AllMySat

Download on the App Store